This is the latest recevied weather packets stored in our database for station/object ES2ADF-5. If no packets are shown the sender has not sent any weather packets the latest 10 day(s).
| Time | Temp. | Humidity | Pressure | Rain* | Wind** | Luminosity | Snow |
|---|---|---|---|---|---|---|---|
| 1777899557 | 12.78° C | 78% | 1001 hPa | 0 mm | - | - | - |
| 1777899257 | 12.78° C | 77% | 1001 hPa | 0 mm | - | - | - |
| 1777898957 | 13.33° C | 77% | 1000.9 hPa | 0 mm | - | - | - |
| 1777898656 | 13.33° C | 77% | 1000.8 hPa | 0 mm | - | - | - |
| 1777898356 | 13.89° C | 77% | 1000.7 hPa | 0 mm | - | - | - |
| 1777898056 | 13.89° C | 77% | 1000.6 hPa | 0 mm | - | - | - |
| 1777897756 | 13.89° C | 78% | 1000.4 hPa | 0 mm | - | - | - |
| 1777897455 | 13.89° C | 78% | 1000.5 hPa | 0 mm | - | - | - |
| 1777897155 | 13.89° C | 78% | 1000.5 hPa | 0 mm | - | - | - |
| 1777896855 | 13.33° C | 79% | 1000.6 hPa | 0 mm | - | - | - |
| 1777896554 | 13.33° C | 80% | 1000.5 hPa | 0 mm | - | - | - |
| 1777896254 | 12.78° C | 80% | 1000.6 hPa | 0 mm | - | - | - |
| 1777895954 | 12.78° C | 80% | 1000.6 hPa | 0 mm | - | - | - |
| 1777895653 | 12.78° C | 81% | 1000.6 hPa | 0 mm | - | - | - |
| 1777895353 | 12.22° C | 81% | 1000.5 hPa | 0 mm | - | - | - |
| 1777895053 | 12.22° C | 81% | 1000.7 hPa | 0 mm | - | - | - |
| 1777894753 | 12.22° C | 80% | 1000.7 hPa | 0 mm | - | - | - |
| 1777894452 | 12.22° C | 80% | 1000.5 hPa | 0 mm | - | - | - |
| 1777894152 | 12.22° C | 80% | 1000.5 hPa | 0 mm | - | - | - |
| 1777893852 | 12.22° C | 79% | 1000.5 hPa | 0 mm | - | - | - |
| 1777893551 | 12.22° C | 79% | 1000.6 hPa | 0 mm | - | - | - |
| 1777893251 | 12.22° C | 80% | 1000.6 hPa | 0 mm | - | - | - |
| 1777892951 | 12.22° C | 81% | 1000.6 hPa | 0 mm | - | - | - |
| 1777892651 | 12.22° C | 81% | 1000.7 hPa | 0 mm | - | - | - |
| 1777892350 | 12.22° C | 81% | 1000.9 hPa | 0 mm | - | - | - |
* Rain latest hour (hover to see other rain measurements)
** Current wind speed in m/s (hover to see current wind gust speed)